Home   Weather   Gdańsk   Past weeks

Flag for Poland Past Weather in Gdańsk, Poland — Yesterday and Last 2 Weeks

Now
32 °F

Clear.


Feels Like: 26 °F
Forecast: 34 / 37 °F
Wind: 6 mph from West

Location: Gdansk-Rebiechowo

Current Time: Jan 24, 2017 at 10:39:58 pm

Latest Report: Jan 24, 2017 at 10:00 pm


Visibility: 10 mi

Pressure: 30.27 "Hg

Humidity: 93%

Dew Point: 30 °F

Location of GdańskLocation

Past Weather in Gdańsk — Graph

°F

Gdańsk Temperature Yesterday

Maximum temperature yesterday: 30 °F (at 9:30 pm)
Minimum temperature yesterday: 27 °F (at 5:30 am)
Average temperature yesterday: 28 °F

High & Low Weather Summary for the Past Weeks

 TemperatureHumidityPressure
High37 °F (Jan 20, 11:00 am)100% (Jan 13, 10:00 am)30.63 "Hg (Jan 13, 10:00 am)
Low12 °F (Jan 11, 6:30 am)63% (Jan 11, 12:00 pm)29.12 "Hg (Jan 13, 1:30 pm)
Average29 °F92%30.05 "Hg
* Reported Jan 9 9:00 pm — Jan 24 9:30 pm, Gdańsk, Weather by CustomWeather, © 2017

Note: Actual official high and low records may vary slightly from our data, if they occured in-between our weather recording intervals... More about our weather records

Advertising

Gdańsk Weather History for the Previous 24 Hours

Scroll right to see more
 ConditionsComfort  
Time TempWeatherWind HumidityBarometerVisibility
9:30 pm
Tue, Jan 24
32 °FClear.7 mph93%30.27 "Hg10 mi
9:00 pm32 °FClear.9 mph93%30.27 "Hg10 mi
8:30 pm34 °FPassing clouds.8 mph93%30.27 "HgN/A
8:00 pm34 °FPassing clouds.10 mph93%30.27 "HgN/A
7:30 pm34 °FPartly cloudy.10 mph93%30.27 "HgN/A
7:00 pm34 °FMostly cloudy.12 mph93%30.24 "HgN/A
6:30 pm34 °FLow clouds.12 mph93%30.24 "HgN/A
6:00 pm34 °FPassing clouds.10 mph93%30.24 "HgN/A
5:30 pm34 °FPassing clouds.12 mph93%30.24 "HgN/A
5:00 pm34 °FPassing clouds.10 mph93%30.24 "HgN/A
4:30 pm34 °FPartly cloudy.12 mph93%30.24 "HgN/A
4:00 pm34 °FPartly sunny.10 mph93%30.21 "HgN/A
3:30 pm36 °FPartly sunny.13 mph87%30.21 "HgN/A
3:00 pm36 °FPartly sunny.13 mph87%30.21 "HgN/A
2:30 pm36 °FPartly sunny.12 mph87%30.21 "HgN/A
2:00 pm36 °FPartly sunny.13 mph87%30.21 "HgN/A
1:30 pm36 °FPartly sunny.13 mph87%30.21 "HgN/A
1:00 pm36 °FPartly sunny.13 mph87%30.18 "HgN/A
12:30 pm36 °FPartly sunny.15 mph87%30.18 "HgN/A
12:00 pm36 °FPartly sunny.14 mph87%30.18 "HgN/A
11:30 am36 °FScattered clouds.13 mph87%30.18 "HgN/A
11:00 am36 °FBroken clouds.13 mph87%30.18 "HgN/A
10:30 am36 °FScattered clouds.13 mph87%30.18 "HgN/A
10:00 am34 °FScattered clouds.14 mph93%30.18 "HgN/A
9:30 am34 °FBroken clouds.14 mph93%30.15 "Hg5 mi
9:00 am34 °FBroken clouds.14 mph93%30.15 "Hg5 mi
8:30 am34 °FPartly sunny.15 mph93%30.15 "Hg5 mi
8:00 am34 °FBroken clouds.13 mph87%30.15 "Hg4 mi
7:30 am34 °FPartly cloudy.12 mph87%30.15 "Hg6 mi
7:00 am34 °FOvercast.12 mph93%30.12 "Hg6 mi
6:30 am34 °FLow clouds.13 mph93%30.12 "Hg6 mi
6:00 am34 °FPassing clouds.12 mph93%30.12 "Hg5 mi
5:30 am34 °FPassing clouds.10 mph93%30.12 "Hg6 mi
5:00 am34 °FPassing clouds.12 mph93%30.12 "Hg6 mi
4:30 am34 °FPartly cloudy.9 mph93%30.12 "Hg6 mi
4:00 am32 °FPassing clouds.9 mph93%30.12 "Hg4 mi
3:30 am32 °FIce fog.9 mph93%30.12 "Hg3 mi
3:00 am32 °FIce fog.12 mph93%30.12 "Hg3 mi
2:30 am32 °FPassing clouds.9 mph93%30.12 "Hg4 mi
2:00 am30 °FIce fog.6 mph100%30.12 "Hg3 mi
1:30 am30 °FIce fog.10 mph100%30.12 "Hg3 mi
1:00 am30 °FIce fog.9 mph100%30.12 "Hg3 mi
12:30 am30 °FIce fog.9 mph100%30.12 "Hg3 mi
12:00 am30 °FIce fog.9 mph100%30.12 "Hg3 mi
11:30 pm
Mon, Jan 23
30 °FIce fog.8 mph93%30.12 "Hg3 mi
11:00 pm30 °FIce fog.9 mph93%30.12 "Hg2 mi
10:30 pm30 °FIce fog.8 mph93%30.12 "Hg2 mi
10:00 pm30 °FIce fog.9 mph93%30.12 "Hg2 mi
Weather by CustomWeather, © 2017

See weather overviewHow to use our weather pages